weather.gov     
National Weather Service

Regional Weather Roundup
NWS Homepage
This page is being discontinued on March 12, 2014.
The same data is available at this site. Please update your bookmarks.
Thank you, and we apologize for the inconvenience.
Please send an email to SR-SRH.Webmaster@noaa.gov with any concerns.


Current Version
Previous Version:    01  02  03  04  05  06  07  08  09  10  11  12  13  14  15  16  17  18  19  20  21  22  23  24  25  26  27  28  29  30  
   31  32  33  34  35  36  37  38  39  40  41  42  43  44  45  46  47  48  49  50  51  52  53  54  55  56  57  58  59  60  
[Printable]
059
ASUS44 KSJT 220210
RWRSJT
WEST CENTRAL TEXAS REGIONAL WEATHER ROUNDUP
NATIONAL WEATHER SERVICE SAN ANGELO TX
900 PM CDT THU AUG 21 2014

NOTE: "FAIR" INDICATES FEW OR NO CLOUDS BELOW 12,000 FEET WITH NO
SIGNIFICANT WEATHER AND/OR OBSTRUCTIONS TO VISIBILITY.

TXZ049-054-064>066-071>073-076>078-098-099-113-114-127-128-139-140-
154-155-168>170-220300
...LOCATIONS ACROSS WEST CENTRAL TEXAS...

CITY           SKY/WX    TMP DP  RH WIND       PRES   REMARKS
SAN ANGELO     CLEAR     89  64  43 S9        29.97R
ABILENE        CLEAR     90  61  37 S12       29.97R
DYESS AFB      CLEAR     89  65  45 S15       29.96R
JUNCTION       CLEAR     86  63  45 SE5       29.99S
SWEETWATER     CLEAR     88  64  43 SE16G23   30.01S
BROWNWOOD      PTCLDY    90  59  35 MISG      29.97S
COLEMAN        CLEAR     84  64  50 S5        29.99R
SONORA         CLEAR     88  63  42 SE5       30.04S
OZONA          FAIR      86  63  45 SE13G18   30.02S
BRADY          CLEAR     86  63  45 SE5       29.99S
$$

TEXAS PANHANDLE/OKLAHOMA PANHANDLE

CITY           SKY/WX    TMP DP  RH WIND       PRES   REMARKS
AMARILLO       CLEAR     81  59  47 SE7       29.99R
BORGER         PTCLDY    86  61  42 SE6       29.94R
CANADIAN       PTCLDY    91  63  40 S9        29.90R
DALHART        PTCLDY    84  54  35 S9        29.99R
DUMAS          MOCLDY    78  58  49 SE7       29.98R
GUYMON         NOT AVBL
HEREFORD       MOCLDY    84  60  44 SE10      30.00R
PAMPA          PTCLDY    87  57  35 S13       29.97R
PERRYTON       CLOUDY    77  68  73 SE9       29.93R
$$

SOUTHERN PANHANDLE/SOUTH PLAINS/ROLLING PLAINS

CITY           SKY/WX    TMP DP  RH WIND       PRES   REMARKS
LUBBOCK        PTCLDY    87  60  40 SE14      29.98R
SNYDER         CLEAR     90  64  41 S14       29.98R
CHILDRESS      PTCLDY    91  63  39 S9        29.92R
SEMINOLE       PTCLDY    85  56  36 S18G30    30.01R
$$

PERMIAN BASIN

CITY           SKY/WX    TMP DP  RH WIND       PRES   REMARKS
MIDLAND        MOCLDY    77  61  57 W21G32    30.02R
ODESSA         LGT RAIN  74  63  68 W8        30.02R
WINK           CLOUDY    83  63  50 SE15      29.98R
$$

FAR WEST/SOUTHWEST MOUNTAINS/TRANS PECOS

CITY           SKY/WX    TMP DP  RH WIND       PRES   REMARKS
ALPINE         MOCLDY    77  62  58 CALM      30.18R
DRYDEN           N/A     81  68  64 W3        29.99R
EL PASO        CLOUDY    86  54  33 S18G28    30.01R
FORT STOCKTON  MOCLDY    81  63  54 S6        30.04R
GUADALUPE PASS CLOUDY    74  57  55 SW10      30.18R
MARFA          MOCLDY    75  61  60 E14       30.16R
PECOS          CLOUDY    83  61  47 SE6       29.97S
$$

DALLAS/FORT WORTH METROPLEX

CITY           SKY/WX    TMP DP  RH WIND       PRES   REMARKS
DFW AIRPORT    CLEAR     92  62  36 S10       29.95R
FTW MEACHAM    CLEAR     94  61  33 S15       29.93S
DAL-EXECUTIVE  CLEAR     93  63  36 SE13G18   29.96R
GRAND PRAIRIE  CLEAR     91  58  32 SE7       29.97R
ADDISON        CLEAR     93  59  31 S10       29.96R
MESQUITE       NOT AVBL
LANCASTER      CLEAR     90  63  40 SE8       29.97S
$$

NORTH CENTRAL TEXAS

CITY           SKY/WX    TMP DP  RH WIND       PRES   REMARKS
SHRMAN/DENISON CLEAR     89  61  38 SE9       29.98R
GAINESVILLE    CLEAR     85  66  52 SE9       29.97R
BRIDGEPORT     CLEAR     91  54  28 SE7       29.95R
DENTON         CLEAR     90  62  39 SE10      29.94R
WAXAHACHIE     CLEAR     89  61  38 SE9       29.98S
GRANBURY       CLEAR     94  58  29 SE7       29.96R
$$

WESTERN NORTH TEXAS

CITY           SKY/WX    TMP DP  RH WIND       PRES   REMARKS
WICHITA FALLS  CLEAR     92  63  38 S16       29.89R
VERNON         CLEAR     96  60  30 S9        29.90R
BRECKENRIDGE   CLEAR     94  53  25 S10       29.94R
COMANCHE       CLEAR     89  56  32 S7        29.98R
$$

CENTRAL AND SOUTH CENTRAL TEXAS

CITY           SKY/WX    TMP DP  RH WIND       PRES   REMARKS
AUSTIN/BERGSTM CLEAR     91  68  46 S17G28    29.98R
WACO           CLEAR     92  62  36 SE15      29.96S
HILLSBORO      CLEAR     91  59  34 SE9       29.97S
TEMPLE         CLEAR     91  61  35 SE14      29.98R
KILLEEN-GRAY   CLEAR     91  63  38 SE16      29.98R
FORT HOOD      CLEAR     94  63  35 SE12G17   29.98R
GEORGETOWN     NOT AVBL
LAGO VISTA     FAIR      91  65  43 SE13G23   30.02R
SAN MARCOS     CLEAR     90  70  51 SE20G25   30.01R
NEW BRAUNFELS  CLEAR     89  72  56 S20G30    29.99R
RANDOLPH AFB   CLEAR     89  71  53 SE22G28   30.00R
SAN ANTONIO    PTCLDY    91  73  55 SE20G30   29.99R
STINSON        CLEAR     90  73  57 SE20G25   29.97R
PLEASANTON     NOT AVBL
LA GRANGE      CLEAR     88  76  67 S14G21    30.01R
GIDDINGS       CLEAR     88  70  55 S9G20     30.06R
$$

EAST TEXAS

CITY           SKY/WX    TMP DP  RH WIND       PRES   REMARKS
PARIS          CLEAR     84  66  54 SE9       30.00S
CLARKSVILLE    PTCLDY    86  69  56 SE5       30.00S
TYLER          CLEAR     88  71  57 SE13      30.01S
LONGVIEW       CLEAR     85  69  58 S7        30.02S
PALESTINE      CLEAR     86  71  60 SE6       30.02S
NACOGDOCHES    PTCLDY    84  72  65 S7        30.05R
$$

TEXAS HILL COUNTRY AND EDWARDS PLATEAU

CITY           SKY/WX    TMP DP  RH WIND       PRES   REMARKS
LLANO          CLEAR     93  61  33 S7        30.00R
HORSESHOE BAY  FAIR      92  58  32 SE9       29.98S
KERRVILLE      CLEAR     85  61  43 SE7       30.01S
FREDERICKSBRG  CLEAR     89  58  34 SE5       30.01R
ROCKSPRINGS    CLEAR     82  63  51 CALM      30.05R
HONDO          CLEAR     93  60  33 SE14      29.97R
UVALDE         CLEAR     93  59  31 SE9       29.94R
DEL RIO        CLEAR     95  63  34 E7        29.89S
$$

SOUTHEAST TEXAS

CITY           SKY/WX    TMP DP  RH WIND       PRES   REMARKS
COLLEGE STN    CLEAR     89  69  51 S15       30.02R
CALDWELL       CLEAR     88  68  51 SE15G21   30.04R
CROCKETT       CLEAR     88  79  74 S9        30.06R
BRENHAM        CLEAR     88  72  58 S10G17    30.04R
HUNTSVILLE     CLEAR     87  73  62 VRB5      30.04R
CONROE         CLEAR     84  74  71 SE14      30.06R
HOUSTON BUSH   PTCLDY    85  73  67 S9        30.06R
HOUSTON HOBBY  PTCLDY    83  74  74 SE7       30.06S
PERLAND        CLEAR     84  75  74 SE6       30.08S
WHARTON        CLEAR     82  74  77 SE8       30.06S
$$

THE UPPER TEXAS COAST

CITY           SKY/WX    TMP DP  RH WIND       PRES   REMARKS
ORANGE         MOCLDY    83  74  74 MISG      30.09S
PORT ARTHUR    MOCLDY    81  75  82 S5        30.07S
GALVESTON      PTCLDY    85  77  77 S13       30.09R
ANGLETON       CLEAR     82  76  81 SE6       30.07S
BAY CITY       CLEAR     84  77  80 SE8       30.06S
$$

TEXAS COASTAL BEND, RIO GRANDE PLAINS DEEP SOUTH TEXAS

CITY           SKY/WX    TMP DP  RH WIND       PRES   REMARKS
VICTORIA       PTCLDY    86  77  74 SE20      30.04R
BEEVILLE       FAIR      85  75  73 SE17G24   30.01S
ROCKPORT       CLEAR     85  79  82 SE17G24   30.02R
PORT ARANSAS   CLEAR     83  78  86 SE12G17   30.03R
PORT LAVACA    CLEAR     83  77  81 SE12      30.04R
CORPUS CHRISTI PTCLDY    85  77  77 SE20      30.01R
KINGSVILLE NAS PTCLDY    85  79  82 SE23G32   30.00R
COTULLA        CLEAR     96  62  32 SE17G25   29.93R
LAREDO         CLEAR     96  68  40 SE22G30   29.95R
BROWNSVILLE    PTCLDY    84  77  79 SE9       30.01R
PORT ISABEL    PTCLDY    86  78  77 SE13      30.01R
HEBBRONVILLE   CLEAR     91  63  38 SE18      29.98R
MCALLEN        PTCLDY    87  72  60 SE18G24   29.98R
WESLACO        PTCLDY    86  72  61 SE13      29.99R
FALFURRIAS     PTCLDY    93  72  50 SE13G20   29.98R
EDINBURG       PTCLDY    89  68  50 SE17G23   29.99R
$$




U.S. Dept. of Commerce
NOAA National Weather Service
1325 East West Highway
Silver Spring, MD 20910
E-mail: w-nws.webmaster@noaa.gov
Page last modified: May 16, 2007
NATIONAL WEATHER SERVICE: for Safety, for Work, for Fun - FOR LIFE